Location: Sungai Bunut
(2.6333°N, 113.7333°E)
Time: 19:04:20
(UTC+00:00)

Okean 2 - Pass Details

Date: 16 October 2021
Orbit: 559 x 575 km, 82.5° (Epoch: 08 December)

Event Time Altitude Azimuth Distance (km) Brightness Sun altitude
Rises 21:12:10 0° 203° (SSW) 2,747 6.7 -14.8°
Reaches altitude 10° 21:14:34 10° 214° (SW) 1,847 5.7 -14.2°
Maximum altitude 21:18:04 28° 274° (W) 1,062 4.2 -13.4°
Drops below altitude 10° 21:21:34 10° 334° (NNW) 1,838 5.7 -12.5°
Sets 21:23:57 0° 346° (NNW) 2,730 6.6 -11.9°
